Weather in Turiysk

Ukraine / Volyn Oblast     51°05′18″N   24°31′28″E
temp.,
°C
wind,
m/s
gust,
m/s
humid.,
%
clouds,
%
prec.,
mm/h
press.,
hPa
HPBL,
m
19 january, wed
wed1923:00−2nw5109013 0.0 1031398
02:00−2wnw4996100 0.0 1031316
05:00−3w499432 0.0 1030300
08:00−3wsw5119437 0.0 1028378
11:00−1wsw61288100 0.0 1027587
14:000wsw61189100 0.1 1024614
17:000wsw51191100 0.0 1022479
20:00−1wsw51092100 0.0 1020319
20 january, thu
thu2023:00−2sw51183100 0.0 1017265
02:00−2sw61581100 0.0 1014411
05:00−2sw81979100 0.0 1011652
08:00−1sw101978100 0.0 1008835
11:000wsw91783100 0.0 1007841
14:00+1w715665 0.3 10061336
17:00−1w101591100 0.2 1005996
20:00−3w81480100 0.3 10061055
21 january, fri
fri2123:00−3w9147193 0.1 10071130
02:00−3wnw101669100 0.6 10081180
05:00−3w101673100 0.0 10081040
08:00−4w111980100 0.1 10081043
11:00−2wnw101679100 0.2 10091175
14:00−1wnw101576100 0.3 10091358
17:00−2w101575100 0.1 10091090
20:00−3w101686100 0.4 10101056
22 january, sat
sat2223:00−3wnw91590100 0.2 10101119
02:00−4wnw91590100 0.4 10101093
05:00−4wnw91590100 0.3 1010991
08:00−4w81487100 0.6 1010902
11:00−4wnw81493100 1.1 10101052
14:00−3nnw6882100 1.9 1011941
17:00−4nnw61186100 0.2 1015666
20:00−5nnw51089100 0.3 1018722
23 january, sun
sun2323:00−6nnw5109292 0.1 1020665
02:00−5nnw4994100 0.2 1022629
05:00−5n5994100 0.6 1022711
08:00−7nne599294 0.9 1024478
11:00−7nne5787100 0.0 1027548
14:00−6nne5679100 0.1 1029802
17:00−6nne4787100 0.1 1031721
20:00−8nne379459 0.1 1034236